Weather History for Cecil Field, FL

Change the Weather History Date:

Saturday, December 15, 2012

  Actual Average (KJAX) Record (KJAX)
Temperature  
Mean Temperature 60 °F 55 °F  
Max Temperature 73 °F 67 °F 84 °F (2009)
Min Temperature 48 °F 44 °F 21 °F (2010)
Degree Days  
Heating Degree Days 4 10  
Month to date heating degree days 136  
Since 1 July heating degree days 309  
Cooling Degree Days 0 1  
Month to date cooling degree days 15  
Year to date cooling degree days 2659  
Growing Degree Days 10 (Base 50)    
Moisture  
Dew Point 54 °F    
Average Humidity 93    
Maximum Humidity 100    
Minimum Humidity 69    
Precipitation  
Precipitation 0.01 in 0.09 in 1.59 in (1997)
Month to date precipitation 1.31  
Year to date precipitation 50.90  
Snow  
Snow 0.00 in 0.00 in 0.00 in (2001)
Month to date snowfall 0.0  
Since 1 July snowfall 0.0  
Snow Depth -    
Sea Level Pressure  
Sea Level Pressure 30.14 in    
Wind  
Wind Speed 1 mph (NNE)    
Max Wind Speed 5 mph    
Max Gust Speed -    
Visibility 7 miles    
Events Fog , Rain    
T = Trace of Precipitation, MM = Missing Value Source: NWS Daily Summary

Daily Weather History Graph

Daily Weather History Graph

Search for Another Location

Airport:

Trip Planner

Search our weather history database for the weather conditions in past years. The results will help you decide how hot, cold, wet, or windy it might be!

Date:

Astronomy

Dec. 15, 2012 Rise Set
Actual Time 7:16 AM EST 5:29 PM EST
Civil Twilight 6:50 AM EST 5:55 PM EST
Nautical Twilight 6:20 AM EST 6:25 PM EST
Astronomical Twilight 5:50 AM EST 6:54 PM EST
Moon 9:15 AM EST (12/15) 8:22 PM EST (12/15)
Length of Visible Light 11h 05m
Length of Day
10h 12m
Waxing Crescent, 8% of the Moon is Illuminated
Dec 15
Waxing Crescent
Dec 20
First Quarter
Dec 28
Full
Jan 4
Last Quarter
Jan 11
New

Hourly Weather History & Observations

Time (EST) Temp. Dew Point Humidity Pressure Visibility Wind Dir Wind Speed Gust Speed Precip Events Conditions
12:15 AM 53.6 °F 48.2 °F 82% 30.18 in 10.0 mi North 3.5 mph - N/A   Mostly Cloudy
12:35 AM 51.8 °F 46.4 °F 82% 30.17 in 10.0 mi North 4.6 mph - N/A   Mostly Cloudy
12:55 AM 51.8 °F 46.4 °F 82% 30.16 in 10.0 mi North 3.5 mph - N/A   Mostly Cloudy
1:35 AM 50.0 °F 46.4 °F 87% 30.16 in 10.0 mi Calm Calm - N/A   Clear
1:55 AM 51.8 °F 48.2 °F 88% 30.17 in 10.0 mi Calm Calm - N/A   Mostly Cloudy
2:15 AM 53.6 °F 48.2 °F 82% 30.17 in 10.0 mi Calm Calm - N/A   Overcast
2:35 AM 53.6 °F 48.2 °F 82% 30.17 in 7.0 mi Calm Calm - N/A Rain Light Rain
2:55 AM 51.8 °F 50.0 °F 94% 30.16 in 5.0 mi Calm Calm - 0.01 in Rain Light Rain
3:15 AM 51.8 °F 50.0 °F 94% 30.15 in 10.0 mi Calm Calm - N/A   Overcast
3:35 AM 51.8 °F 50.0 °F 94% 30.14 in 10.0 mi Calm Calm - N/A   Mostly Cloudy
3:55 AM 50.0 °F 50.0 °F 100% 30.13 in 6.0 mi Calm Calm - N/A   Partly Cloudy
4:15 AM 50.0 °F 50.0 °F 100% 30.13 in 10.0 mi Calm Calm - N/A   Partly Cloudy
4:35 AM 50.0 °F 50.0 °F 100% 30.12 in 9.0 mi Calm Calm - N/A   Partly Cloudy
4:55 AM 50.0 °F 50.0 °F 100% 30.14 in 10.0 mi Calm Calm - N/A   Partly Cloudy
5:15 AM 50.0 °F 50.0 °F 100% 30.15 in 10.0 mi Calm Calm - N/A   Mostly Cloudy
5:35 AM 51.8 °F 51.8 °F 100% 30.15 in 10.0 mi Calm Calm - N/A   Overcast
5:55 AM 51.8 °F 51.8 °F 100% 30.16 in 10.0 mi Calm Calm - N/A   Overcast
6:15 AM 51.8 °F 50.0 °F 94% 30.17 in 10.0 mi Calm Calm - N/A   Overcast
6:35 AM 50.0 °F 50.0 °F 100% 30.16 in 10.0 mi Calm Calm - N/A   Scattered Clouds
6:50 AM 50.0 °F 50.0 °F 100% 30.16 in 7.0 mi Calm Calm - N/A   Scattered Clouds
7:50 AM 48.2 °F 48.2 °F 100% 30.17 in 7.0 mi Calm Calm - N/A   Clear
8:50 AM 55.4 °F 53.6 °F 94% 30.19 in 10.0 mi Calm Calm - N/A   Clear
9:50 AM 59.0 °F 55.4 °F 88% 30.20 in 10.0 mi NNE 3.5 mph - N/A   Clear
10:50 AM 64.4 °F 57.2 °F 77% 30.19 in 10.0 mi Calm Calm - N/A   Clear
11:50 AM 66.2 °F 59.0 °F 78% 30.17 in 10.0 mi Calm Calm - N/A   Clear
12:50 PM 69.8 °F 60.8 °F 73% 30.14 in 10.0 mi NE 4.6 mph - N/A   Clear
1:50 PM 73.4 °F 62.6 °F 69% 30.12 in 10.0 mi Calm Calm - N/A   Scattered Clouds
2:50 PM 73.4 °F 62.6 °F 69% 30.10 in 10.0 mi Calm Calm - N/A   Scattered Clouds
3:50 PM 71.6 °F 62.6 °F 73% 30.10 in 10.0 mi NE 4.6 mph - N/A   Scattered Clouds
6:50 PM 62.6 °F 62.6 °F 100% 30.11 in 10.0 mi Variable 4.6 mph - N/A   Clear
7:50 PM 60.8 °F 60.8 °F 100% 30.12 in 6.0 mi Calm Calm - N/A   Clear
8:15 PM 59.0 °F 59.0 °F 100% 30.11 in 3.0 mi Calm Calm - N/A   Clear
8:35 PM 59.0 °F 59.0 °F 100% 30.12 in 3.0 mi Calm Calm - N/A   Mostly Cloudy
8:55 PM 59.0 °F 59.0 °F 100% 30.12 in 0.5 mi Calm Calm - N/A Fog Fog
9:15 PM 59.0 °F 59.0 °F 100% 30.11 in 0.2 mi Calm Calm - N/A Fog Fog
9:35 PM 59.0 °F 59.0 °F 100% 30.11 in 0.2 mi Calm Calm - N/A Fog Fog
9:55 PM 59.0 °F 59.0 °F 100% 30.11 in 0.2 mi Calm Calm - N/A Fog Fog
10:15 PM 59.0 °F 59.0 °F 100% 30.11 in 0.2 mi Calm Calm - N/A Fog Fog
10:35 PM 59.0 °F 59.0 °F 100% 30.12 in 0.2 mi Calm Calm - N/A Fog Fog
10:55 PM 59.0 °F 59.0 °F 100% 30.10 in 0.2 mi Calm Calm - N/A Fog Fog
11:15 PM 59.0 °F 59.0 °F 100% 30.09 in 0.2 mi Calm Calm - N/A Fog Fog
11:35 PM 59.0 °F 59.0 °F 100% 30.10 in 0.2 mi Calm Calm - N/A Fog Fog
11:55 PM 59.0 °F 59.0 °F 100% 30.11 in 0.2 mi Calm Calm - N/A Fog Fog